Location: Crescent
(42.8242°N, 73.7329°W)
Time: 12:39:16
(UTC+00:00)

Vanguard 3 - Pass Details

Date: 25 February 2026
Orbit: 507 x 3205 km, 33.4° (Epoch: 8 March)

Event Time Altitude Azimuth Distance (km) Brightness Sun altitude
Rises 23:24:45 0° 272° (W) 5,147 13.6 -9.0°
Reaches altitude 10° 23:29:31 10° 260° (W) 3,622 12.1 -9.9°
Maximum altitude 23:35:56 23° 213° (SSW) 2,073 9.7 -11.1°
Drops below altitude 10° 23:40:21 10° 161° (SSE) 2,392 9.4 -11.9°
Sets 23:42:48 0° 145° (SE) 3,072 9.8 -12.4°
Enters shadow 23:42:52 - 145° (SE) 3,093 9.8 -12.4°
